Fairbanks Eiels, AK

12:36 AM AKST on December 18, 2017 (GMT -0900)
Eielson Air Force Base

Weather History for PAEI - January, 2013

Change the Weather History Date:

Friday, January 18, 2013

  Actual Average Record
Temperature  
Mean Temperature -21 °F -  
Max Temperature -13 °F 0 °F 45 °F (1980)
Min Temperature -29 °F -16 °F -62 °F (1971)
Degree Days  
Heating Degree Days 86    
Moisture  
Dew Point -28 °F    
Average Humidity 82    
Maximum Humidity 98    
Minimum Humidity 72    
Precipitation  
Precipitation 0.00 in - - ()
Sea Level Pressure  
Sea Level Pressure 30.40 in    
Wind  
Wind Speed 0 mph (North)    
Max Wind Speed 4 mph    
Max Gust Speed -    
Visibility 8 miles    
Events      
Averages and records for this station are not official NWS values.
T = Trace of Precipitation, MM = Missing Value Source: NWS Daily Summary

Daily Weather History Graph

Daily Weather History Graph

Search for Another Location

Airport or City:

Trip Planner

Search our weather history database for the weather conditions in past years. The results will help you decide how hot, cold, wet, or windy it might be!

Date:

Astronomy

Jan. 18, 2013 Rise Set
Actual Time 10:12 AM AKST 3:45 PM AKST
Civil Twilight 9:05 AM AKST 4:53 PM AKST
Nautical Twilight 8:00 AM AKST 5:57 PM AKST
Astronomical Twilight 7:02 AM AKST 6:56 PM AKST
Moon 10:40 AM AKST 1:54 AM AKST
Length of Visible Light 7h 47m
Length of Day
5h 32m
Waxing Crescent, 49% of the Moon is Illuminated
Jan 18
Waxing Crescent
Jan 18
First Quarter
Jan 26
Full
Feb 3
Last Quarter
Feb 9
New

Hourly Weather History & Observations

Time (AKST) Temp. Windchill Dew Point Humidity Pressure Visibility Wind Dir Wind Speed Gust Speed Precip Events Conditions
12:55 AM -13.2 °F - -18.8 °F 76% 30.25 in 10.0 mi Calm Calm - N/A   Scattered Clouds
1:55 AM -17.9 °F - -23.6 °F 75% 30.26 in 10.0 mi Calm Calm - N/A   Partly Cloudy
2:55 AM -21.3 °F - -27.4 °F 73% 30.28 in 10.0 mi Calm Calm - N/A   Clear
3:11 AM -22.0 °F - -27.4 °F 76% 30.28 in 5.0 mi Calm Calm - N/A   Haze
3:21 AM -20.2 °F - -25.6 °F 76% 30.29 in 4.0 mi Calm Calm - N/A   Haze
3:29 AM -20.2 °F - -25.6 °F 76% 30.29 in 2.5 mi Calm Calm - N/A   Haze
3:30 AM -20.2 °F - -25.6 °F 76% 30.30 in 3.0 mi Calm Calm - N/A   Haze
3:31 AM -20.2 °F - -25.6 °F 76% 30.30 in 3.0 mi Calm Calm - N/A   Haze
3:35 AM -20.2 °F - -25.6 °F 76% 30.30 in 4.0 mi Calm Calm - N/A   Haze
3:55 AM -22.2 °F - -28.3 °F 73% 30.30 in 10.0 mi Calm Calm - N/A   Overcast
4:55 AM -24.9 °F - -29.9 °F 77% 30.32 in 10.0 mi Calm Calm - N/A   Clear
5:55 AM -24.2 °F - -29.9 °F 74% 30.33 in 10.0 mi Calm Calm - N/A   Clear
6:55 AM -26.7 °F - -29.9 °F 85% 30.35 in 10.0 mi Calm Calm - N/A   Clear
7:55 AM -26.5 °F - -29.9 °F 84% 30.37 in 10.0 mi Calm Calm - N/A   Clear
8:55 AM -27.8 °F - -29.9 °F 89% 30.38 in 10.0 mi Calm Calm - N/A   Clear
9:55 AM -28.7 °F - -29.9 °F 94% 30.41 in 10.0 mi Calm Calm - N/A   Scattered Clouds
10:55 AM -29.4 °F -41.4 °F -29.9 °F 97% 30.42 in 10.0 mi Variable 3.5 mph - N/A   Scattered Clouds
11:55 AM -27.0 °F - -29.9 °F 86% 30.44 in 10.0 mi Calm Calm - N/A   Scattered Clouds
12:55 PM -22.2 °F - -28.5 °F 72% 30.44 in 10.0 mi Calm Calm - N/A   Scattered Clouds
1:55 PM -19.5 °F - -25.4 °F 74% 30.45 in 10.0 mi Calm Calm - N/A   Scattered Clouds
2:55 PM -20.4 °F - -26.7 °F 73% 30.45 in 10.0 mi Calm Calm - N/A   Partly Cloudy
3:55 PM -22.0 °F - -28.3 °F 73% 30.45 in 10.0 mi Calm Calm - N/A   Partly Cloudy
4:55 PM -25.1 °F - -29.9 °F 78% 30.47 in 10.0 mi Calm Calm - N/A   Clear
5:55 PM -25.4 °F - -29.9 °F 79% 30.48 in 10.0 mi Calm Calm - N/A   Clear
6:38 PM -25.6 °F - -29.2 °F 83% 30.48 in 4.0 mi Calm Calm - N/A   Haze
6:43 PM -25.6 °F - -29.2 °F 83% 30.48 in 6.0 mi Calm Calm - N/A   Clear
6:55 PM -27.2 °F - -29.9 °F 87% 30.48 in 10.0 mi Calm Calm - N/A   Clear
7:55 PM -27.0 °F - -29.9 °F 86% 30.49 in 10.0 mi Calm Calm - 0.00 in   Clear
8:55 PM -28.7 °F - -29.9 °F 94% 30.49 in 10.0 mi Calm Calm - N/A   Clear
9:55 PM -29.4 °F - -29.9 °F 97% 30.49 in 10.0 mi Calm Calm - 0.00 in   Clear
10:27 PM -27.4 °F - -29.2 °F 91% 30.50 in 8.0 mi Calm Calm - N/A   Clear
10:35 PM -27.4 °F - -29.2 °F 91% 30.50 in 7.0 mi Calm Calm - N/A   Clear
10:55 PM -27.0 °F - -29.9 °F 86% 30.50 in 10.0 mi Calm Calm - N/A   Partly Cloudy
11:55 PM -29.6 °F - -29.9 °F 98% 30.50 in 10.0 mi Calm Calm - N/A   Clear